Home > Weather > Punta Cana > Past weeks

Flag for Dominican Republic Weather for the Past 2 Weeks in Punta Cana, Dominican Republic

Now
82 °F

Scattered clouds.


Feels Like: 86 °F
Forecast: 74 / 82 °F
Wind: 12 mph from East

Location: Punta Cana

Current Time: Feb 11, 2016 at 11:12:38 AM

Latest Report: Feb 11, 2016 at 11:00 AM


Visibility: N/A

Pressure: 30.12 "Hg

Humidity: 66%

Dew point: 70 °F

Location of Punta CanaLocation

Historic Weather in Punta Cana — Graph

°F

Punta Cana Temperature Yesterday

Maximum temperature yesterday: 82 °F (at 11:00 AM)
Minimum temperature yesterday: 72 °F (at 10:00 PM)
Average temperature yesterday: 78 °F

High & Low Weather Summary for the Past Weeks

 TemperatureHumidityPressure
High84 °F (Jan 27, 3:00 PM)100% (Jan 31, 2:00 AM)30.12 "Hg (Jan 31, 2:00 AM)
Low66 °F (Feb 5, 2:00 AM)51% (Feb 4, 10:00 AM)29.92 "Hg (Feb 4, 6:00 PM)
Average78 °F80%30.03 "Hg
* Reported Jan 27 10:00 AM — Feb 11 10:00 AM, Punta Cana, Weather by CustomWeather, © 2016

Note: Actual official high and low records may vary slightly from our data, if they occured in-between our weather recording intervals... More about our weather records

Advertising

Punta Cana Weather History for the Previous 24 Hours

 ConditionsComfort  
Time TempWeatherWind HumidityBarometerVisibility
10:00 AM
Thu, Feb 11
82 °FPassing clouds.9 mph70%30.12 "HgN/A
9:00 AM81 °FPassing clouds.14 mph74%30.12 "HgN/A
8:00 AM77 °FPassing clouds.7 mph83%30.09 "HgN/A
7:00 AM77 °FPassing clouds.7 mph83%30.07 "HgN/A
6:00 AM77 °FPassing clouds.9 mph83%30.07 "HgN/A
5:00 AM77 °FPassing clouds.9 mph83%30.04 "HgN/A
4:00 AM77 °FPassing clouds.6 mph89%30.04 "HgN/A
3:00 AM77 °FPassing clouds.6 mph83%30.04 "HgN/A
2:00 AM77 °FPassing clouds.No wind89%30.07 "HgN/A
1:08 AM75 °FPassing clouds.N/A89%30.07 "HgN/A
12:00 AM73 °FPassing clouds.No wind89%30.09 "HgN/A
11:00 PM
Wed, Feb 10
73 °FPassing clouds.No wind89%30.09 "HgN/A
10:00 PM72 °FPassing clouds.No wind94%30.09 "HgN/A
9:00 PM75 °FPassing clouds.3 mph89%30.09 "HgN/A
8:00 PM75 °FPassing clouds.5 mph89%30.09 "HgN/A
7:00 PM79 °FPassing clouds.5 mph79%30.07 "HgN/A
6:00 PM81 °FPassing clouds.6 mph79%30.07 "HgN/A
5:00 PM81 °FScattered clouds.7 mph79%30.04 "HgN/A
4:00 PM82 °FScattered clouds.9 mph74%30.04 "HgN/A
3:00 PM82 °FScattered clouds.9 mph74%30.04 "HgN/A
2:00 PM82 °FScattered clouds.9 mph70%30.07 "HgN/A
1:00 PM82 °FScattered clouds.9 mph70%30.09 "HgN/A
12:00 PM82 °FScattered clouds.8 mph74%30.12 "HgN/A
11:00 AM82 °FPassing clouds.9 mph74%30.12 "HgN/A
Weather by CustomWeather, © 2016

See weather overviewHow to use our weather pages